| time (UTC) | temp C | wind direction | speed KPH | gust KPH | rain 1hr cm | rain 24hr cm | rain mn cm | humidity % | barometer mb |
| 20260906205611 | 31 | 155 | 0.0 | 0.0 | 0.00 | 0.03 | 0.03 | 81 | 1012.9 |
| 20260906205037 | 32 | 165 | 0.0 | 0.0 | 0.00 | 0.03 | 0.03 | 81 | 1012.9 |
| 20260906204533 | 32 | 292 | 0.0 | 0.0 | 0.00 | 0.03 | 0.03 | 80 | 1012.9 |
| 20260906204029 | 32 | 250 | 0.0 | 0.0 | 0.00 | 0.03 | 0.03 | 79 | 1012.9 |
| 20260906203454 | 31 | 250 | 0.0 | 0.0 | 0.00 | 0.03 | 0.03 | 80 | 1012.9 |
| 20260906202921 | 31 | 250 | 0.0 | 0.0 | 0.00 | 0.03 | 0.03 | 81 | 1012.9 |
| 20260906202417 | 31 | 253 | 0.0 | 0.0 | 0.00 | 0.03 | 0.03 | 80 | 1013.2 |
| 20260906201915 | 31 | 253 | 0.0 | 0.0 | 0.00 | 0.03 | 0.03 | 79 | 1012.9 |
| 20260906201412 | 31 | 253 | 0.0 | 0.0 | 0.00 | 0.03 | 0.03 | 81 | 1012.9 |
| 20260906200909 | 31 | 253 | 0.0 | 0.0 | 0.00 | 0.03 | 0.03 | 82 | 1013.2 |
| 20260906200335 | 31 | 253 | 0.0 | 0.0 | 0.00 | 0.03 | 0.03 | 84 | 1013.2 |
| 20260906195832 | 30 | 253 | 0.0 | 0.0 | 0.00 | 0.03 | 0.03 | 85 | 1013.2 |
| 20260906195258 | 30 | 253 | 0.0 | 0.0 | 0.00 | 0.03 | 0.03 | 83 | 1013.2 |
| 20260906194755 | 30 | 252 | 0.0 | 0.0 | 0.00 | 0.03 | 0.03 | 83 | 1013.5 |
| 20260906194251 | 31 | 252 | 0.0 | 0.0 | 0.00 | 0.03 | 0.03 | 83 | 1013.5 |
| 20260906193749 | 31 | 252 | 0.0 | 3.2 | 0.00 | 0.03 | 0.03 | 82 | 1013.5 |
| 20260906193246 | 31 | 252 | 0.0 | 3.2 | 0.00 | 0.03 | 0.03 | 83 | 1013.5 |
| 20260906192724 | 31 | 172 | 0.0 | 3.2 | 0.00 | 0.03 | 0.03 | 84 | 1013.5 |
| 20260906192221 | 30 | 258 | 1.6 | 1.6 | 0.00 | 0.03 | 0.03 | 83 | 1013.9 |
| 20260906191628 | 30 | 249 | 0.0 | 0.0 | 0.00 | 0.03 | 0.03 | 82 | 1013.9 |
| 20260906191125 | 30 | 252 | 0.0 | 0.0 | 0.03 | 0.03 | 0.03 | 83 | 1013.9 |
| 20260906190536 | 29 | 256 | 0.0 | 0.0 | 0.03 | 0.03 | 0.03 | 83 | 1013.9 |
| 20260906190014 | 29 | 272 | 0.0 | 0.0 | 0.03 | 0.03 | 0.03 | 85 | 1013.5 |
| 20260906185511 | 29 | 55 | 0.0 | 0.0 | 0.03 | 0.03 | 0.03 | 86 | 1013.9 |
| 20260906185008 | 29 | 55 | 0.0 | 0.0 | 0.03 | 0.03 | 0.03 | 87 | 1013.9 |
| 20260906184506 | 28 | 55 | 0.0 | 0.0 | 0.03 | 0.03 | 0.03 | 88 | 1013.9 |
| 20260906184003 | 28 | 55 | 0.0 | 0.0 | 0.03 | 0.03 | 0.03 | 90 | 1013.9 |
| 20260906183429 | 27 | 98 | 0.0 | 0.0 | 0.03 | 0.03 | 0.03 | 92 | 1013.9 |
| 20260906182925 | 27 | 100 | 0.0 | 0.0 | 0.03 | 0.03 | 0.03 | 93 | 1013.9 |
| 20260906182422 | 26 | 100 | 0.0 | 0.0 | 0.03 | 0.03 | 0.03 | 93 | 1013.9 |
| 20260906181919 | 26 | 100 | 0.0 | 0.0 | 0.03 | 0.03 | 0.03 | 92 | 1014.2 |
| 20260906181416 | 26 | 100 | 0.0 | 0.0 | 0.00 | 0.00 | 0.00 | 92 | 1014.2 |
| 20260906180912 | 26 | 100 | 0.0 | 0.0 | 0.00 | 0.00 | 0.00 | 92 | 1014.2 |
| 20260906180410 | 26 | 100 | 0.0 | 0.0 | 0.00 | 0.00 | 0.00 | 91 | 1014.2 |
| 20260906175804 | 26 | 100 | 0.0 | 0.0 | 0.00 | 0.00 | 0.00 | 91 | 1014.2 |
| 20260906174756 | 26 | 100 | 0.0 | 0.0 | 0.00 | 0.00 | 0.00 | 91 | 1014.6 |
| 20260906174252 | 26 | 235 | 0.0 | 0.0 | 0.00 | 0.00 | 0.00 | 91 | 1014.6 |
| 20260906173749 | 26 | 235 | 0.0 | 0.0 | 0.00 | 0.00 | 0.00 | 90 | 1014.6 |
| 20260906173246 | 26 | 235 | 0.0 | 0.0 | 0.00 | 0.00 | 0.00 | 90 | 1014.6 |
| 20260906172744 | 27 | 235 | 0.0 | 0.0 | 0.00 | 0.00 | 0.00 | 90 | 1014.6 |
| 20260906172241 | 27 | 235 | 0.0 | 0.0 | 0.00 | 0.00 | 0.00 | 90 | 1014.6 |
| 20260906171701 | 27 | 235 | 0.0 | 0.0 | 0.00 | 0.00 | 0.00 | 89 | 1014.6 |
| 20260906171055 | 27 | 235 | 0.0 | 0.0 | 0.00 | 0.00 | 0.00 | 88 | 1014.9 |
| 20260906170534 | 27 | 235 | 0.0 | 0.0 | 0.00 | 0.00 | 0.00 | 88 | 1014.9 |
| 20260906170031 | 27 | 235 | 0.0 | 0.0 | 0.00 | 0.00 | 0.00 | 88 | 1014.9 |
| 20260906165527 | 27 | 235 | 0.0 | 0.0 | 0.00 | 0.00 | 0.00 | 88 | 1014.9 |
| 20260906165025 | 27 | 235 | 0.0 | 0.0 | 0.00 | 0.00 | 0.00 | 88 | 1014.9 |
| 20260906164522 | 28 | 235 | 0.0 | 0.0 | 0.00 | 0.00 | 0.00 | 87 | 1014.9 |
| 20260906164019 | 28 | 235 | 0.0 | 1.6 | 0.00 | 0.00 | 0.00 | 87 | 1014.9 |
| 20260906163515 | 28 | 27 | 0.0 | 9.7 | 0.00 | 0.00 | 0.00 | 87 | 1014.9 |
| 20260906163012 | 28 | 277 | 0.0 | 11.3 | 0.00 | 0.03 | 0.00 | 87 | 1014.6 |
| 20260906162509 | 28 | 271 | 0.0 | 11.3 | 0.00 | 0.05 | 0.00 | 84 | 1014.6 |
| 20260906162005 | 29 | 249 | 4.8 | 11.3 | 0.00 | 0.13 | 0.00 | 82 | 1014.9 |
| 20260906161503 | 29 | 254 | 3.2 | 4.8 | 0.00 | 0.15 | 0.00 | 83 | 1014.9 |
| 20260906161000 | 30 | 252 | 0.0 | 3.2 | 0.00 | 0.20 | 0.00 | 82 | 1014.9 |
| 20260906160457 | 30 | 207 | 0.0 | 3.2 | 0.00 | 0.36 | 0.00 | 83 | 1014.9 |
| 20260906155954 | 30 | 58 | 0.0 | 3.2 | 0.00 | 0.48 | 0.00 | 81 | 1014.6 |
| 20260906155432 | 31 | 89 | 0.0 | 3.2 | 0.00 | 0.48 | 0.00 | 82 | 1014.6 |
| 20260906154929 | 31 | 250 | 0.0 | 4.8 | 0.00 | 0.48 | 0.00 | 84 | 1014.6 |
| 20260906154408 | 31 | 15 | 0.0 | 4.8 | 0.00 | 0.48 | 0.00 | 86 | 1014.6 |
| 20260906153905 | 31 | 36 | 0.0 | 4.8 | 0.00 | 0.48 | 0.00 | 85 | 1014.2 |
| 20260906153401 | 31 | 123 | 3.2 | 4.8 | 0.00 | 0.48 | 0.00 | 86 | 1014.2 |
| 20260906152858 | 31 | 85 | 3.2 | 4.8 | 0.00 | 0.48 | 0.00 | 86 | 1014.2 |
| 20260906152355 | 30 | 59 | 0.0 | 4.8 | 0.00 | 0.48 | 0.00 | 87 | 1014.2 |
| 20260906151821 | 30 | 67 | 0.0 | 4.8 | 0.00 | 0.48 | 0.00 | 87 | 1014.2 |
| 20260906151318 | 30 | 42 | 0.0 | 4.8 | 0.00 | 0.48 | 0.00 | 88 | 1014.2 |
| 20260906150815 | 30 | 327 | 4.8 | 4.8 | 0.00 | 0.48 | 0.00 | 87 | 1014.2 |
| 20260906150311 | 30 | 15 | 0.0 | 1.6 | 0.00 | 0.48 | 0.00 | 88 | 1014.2 |
| 20260906145750 | 29 | 85 | 0.0 | 1.6 | 0.00 | 0.48 | 0.00 | 87 | 1014.2 |
| 20260906145247 | 29 | 76 | 0.0 | 0.0 | 0.00 | 0.48 | 0.00 | 88 | 1014.2 |
| 20260906143933 | 28 | 22 | 0.0 | 0.0 | 0.00 | 0.48 | 0.00 | 90 | 1014.2 |
| 20260906143431 | 28 | 19 | 0.0 | 0.0 | 0.00 | 0.48 | 0.00 | 90 | 1014.2 |
| 20260906142928 | 28 | 248 | 0.0 | 0.0 | 0.00 | 0.48 | 0.00 | 90 | 1014.2 |
| 20260906142425 | 28 | 247 | 0.0 | 0.0 | 0.00 | 0.48 | 0.00 | 91 | 1014.2 |
| 20260906141922 | 28 | 247 | 0.0 | 0.0 | 0.00 | 0.48 | 0.00 | 91 | 1014.2 |
| 20260906141419 | 28 | 247 | 0.0 | 0.0 | 0.00 | 0.48 | 0.00 | 92 | 1014.2 |
| 20260906140916 | 27 | 247 | 0.0 | 0.0 | 0.00 | 0.48 | 0.00 | 93 | 1014.2 |
| 20260906140413 | 27 | 294 | 0.0 | 0.0 | 0.00 | 0.48 | 0.00 | 93 | 1014.2 |
| 20260906135911 | 27 | 31 | 0.0 | 0.0 | 0.00 | 0.48 | 0.00 | 94 | 1014.2 |
| 20260906135306 | 27 | 31 | 0.0 | 0.0 | 0.00 | 0.48 | 0.00 | 95 | 1014.2 |
| 20260906134802 | 27 | 31 | 0.0 | 0.0 | 0.00 | 0.48 | 0.00 | 95 | 1014.2 |
| 20260906134259 | 27 | 31 | 0.0 | 0.0 | 0.00 | 0.48 | 0.00 | 95 | 1014.2 |
| 20260906133756 | 27 | 31 | 0.0 | 0.0 | 0.00 | 0.48 | 0.00 | 95 | 1014.2 |
| 20260906133238 | 27 | 31 | 0.0 | 0.0 | 0.00 | 0.48 | 0.00 | 95 | 1014.2 |
| 20260906132735 | 26 | 31 | 0.0 | 0.0 | 0.00 | 0.48 | 0.00 | 96 | 1014.2 |
| 20260906132126 | 26 | 31 | 0.0 | 0.0 | 0.00 | 0.48 | 0.00 | 96 | 1013.9 |
| 20260906131624 | 26 | 31 | 0.0 | 0.0 | 0.00 | 0.48 | 0.00 | 96 | 1013.9 |
| 20260906131121 | 26 | 31 | 0.0 | 0.0 | 0.00 | 0.48 | 0.00 | 95 | 1013.9 |
| 20260906130617 | 26 | 31 | 0.0 | 0.0 | 0.00 | 0.48 | 0.00 | 95 | 1013.5 |
| 20260906130114 | 26 | 31 | 0.0 | 0.0 | 0.00 | 0.48 | 0.00 | 95 | 1013.5 |
| 20260906125544 | 26 | 31 | 0.0 | 0.0 | 0.00 | 0.48 | 0.00 | 95 | 1013.5 |
| 20260906125041 | 26 | 31 | 0.0 | 0.0 | 0.00 | 0.48 | 0.00 | 95 | 1013.5 |
| 20260906124523 | 26 | 31 | 0.0 | 0.0 | 0.00 | 0.48 | 0.00 | 95 | 1013.5 |
| 20260906124020 | 25 | 31 | 0.0 | 0.0 | 0.00 | 0.48 | 0.00 | 95 | 1013.5 |
| 20260906123427 | 25 | 31 | 0.0 | 0.0 | 0.00 | 0.48 | 0.00 | 95 | 1013.5 |
| 20260906122924 | 25 | 31 | 0.0 | 0.0 | 0.00 | 0.48 | 0.00 | 95 | 1013.2 |
| 20260906122421 | 25 | 31 | 0.0 | 0.0 | 0.00 | 0.48 | 0.00 | 95 | 1013.2 |
| 20260906121919 | 25 | 31 | 0.0 | 0.0 | 0.00 | 0.48 | 0.00 | 95 | 1013.2 |
| 20260906121416 | 25 | 31 | 0.0 | 0.0 | 0.00 | 0.48 | 0.00 | 95 | 1013.2 |
| 20260906120838 | 25 | 31 | 0.0 | 0.0 | 0.00 | 0.48 | 0.00 | 95 | 1013.2 |
| 20260906120304 | 25 | 31 | 0.0 | 0.0 | 0.00 | 0.48 | 0.00 | 95 | 1013.2 |
| 20260906115746 | 25 | 31 | 0.0 | 0.0 | 0.00 | 0.48 | 0.00 | 95 | 1013.2 |
| 20260906115242 | 25 | 31 | 0.0 | 0.0 | 0.00 | 0.48 | 0.00 | 94 | 1012.9 |
| 20260906114721 | 25 | 31 | 0.0 | 0.0 | 0.00 | 0.48 | 0.00 | 95 | 1012.9 |
| 20260906114218 | 25 | 31 | 0.0 | 0.0 | 0.00 | 0.48 | 0.00 | 95 | 1012.9 |
| 20260906113715 | 25 | 31 | 0.0 | 0.0 | 0.00 | 0.48 | 0.00 | 95 | 1012.9 |
| 20260906113141 | 25 | 31 | 0.0 | 0.0 | 0.00 | 0.48 | 0.00 | 95 | 1012.9 |
| 20260906112607 | 25 | 31 | 0.0 | 0.0 | 0.00 | 0.48 | 0.00 | 95 | 1012.9 |
| 20260906112105 | 25 | 31 | 0.0 | 0.0 | 0.00 | 0.48 | 0.00 | 94 | 1012.9 |
| 20260906111602 | 25 | 31 | 0.0 | 0.0 | 0.00 | 0.48 | 0.00 | 94 | 1012.9 |
| 20260906111040 | 25 | 31 | 0.0 | 0.0 | 0.00 | 0.48 | 0.00 | 94 | 1012.5 |
| 20260906110506 | 25 | 31 | 0.0 | 0.0 | 0.00 | 0.48 | 0.00 | 94 | 1012.5 |
| 20260906110003 | 25 | 31 | 0.0 | 0.0 | 0.00 | 0.48 | 0.00 | 94 | 1012.5 |
| 20260906105501 | 25 | 31 | 0.0 | 0.0 | 0.00 | 0.48 | 0.00 | 94 | 1012.5 |
| 20260906104957 | 25 | 31 | 0.0 | 0.0 | 0.00 | 0.48 | 0.00 | 94 | 1012.5 |
| 20260906104455 | 25 | 31 | 0.0 | 0.0 | 0.00 | 0.48 | 0.00 | 94 | 1012.5 |
| 20260906103952 | 25 | 31 | 0.0 | 0.0 | 0.00 | 0.48 | 0.00 | 94 | 1012.5 |
| 20260906103449 | 25 | 31 | 0.0 | 0.0 | 0.00 | 0.48 | 0.00 | 94 | 1012.5 |
| 20260906102947 | 25 | 31 | 0.0 | 0.0 | 0.00 | 0.48 | 0.00 | 94 | 1012.5 |
| 20260906102444 | 26 | 31 | 0.0 | 0.0 | 0.00 | 0.48 | 0.00 | 94 | 1012.5 |
| 20260906101941 | 26 | 31 | 0.0 | 0.0 | 0.00 | 0.48 | 0.00 | 94 | 1012.5 |
| 20260906101336 | 26 | 31 | 0.0 | 0.0 | 0.00 | 0.48 | 0.00 | 94 | 1012.5 |
| 20260906100833 | 26 | 31 | 0.0 | 0.0 | 0.00 | 0.48 | 0.00 | 94 | 1012.5 |
| 20260906100312 | 26 | 31 | 0.0 | 0.0 | 0.00 | 0.48 | 0.00 | 94 | 1012.5 |
| 20260906095809 | 26 | 31 | 0.0 | 0.0 | 0.00 | 0.48 | 0.00 | 94 | 1012.5 |
| 20260906095306 | 26 | 31 | 0.0 | 0.0 | 0.00 | 0.48 | 0.00 | 94 | 1012.2 |
| 20260906094802 | 26 | 31 | 0.0 | 0.0 | 0.00 | 0.48 | 0.00 | 94 | 1012.5 |
| 20260906094259 | 26 | 31 | 0.0 | 0.0 | 0.00 | 0.48 | 0.00 | 94 | 1012.5 |
| 20260906093755 | 26 | 31 | 0.0 | 0.0 | 0.00 | 0.48 | 0.00 | 94 | 1012.2 |
| 20260906093253 | 26 | 31 | 0.0 | 0.0 | 0.00 | 0.48 | 0.00 | 94 | 1012.2 |
| 20260906092750 | 26 | 31 | 0.0 | 0.0 | 0.00 | 0.48 | 0.00 | 94 | 1012.2 |
| 20260906092247 | 26 | 31 | 0.0 | 0.0 | 0.00 | 0.48 | 0.00 | 94 | 1012.2 |
| 20260906091744 | 26 | 31 | 0.0 | 0.0 | 0.00 | 0.48 | 0.00 | 94 | 1012.2 |
| 20260906091240 | 26 | 31 | 0.0 | 0.0 | 0.00 | 0.48 | 0.00 | 94 | 1012.2 |
| 20260906090737 | 26 | 31 | 0.0 | 0.0 | 0.00 | 0.48 | 0.00 | 94 | 1012.2 |
| 20260906090234 | 26 | 31 | 0.0 | 0.0 | 0.00 | 0.48 | 0.00 | 94 | 1012.2 |
| 20260906085732 | 26 | 31 | 0.0 | 0.0 | 0.00 | 0.48 | 0.00 | 94 | 1012.2 |
| 20260906085229 | 26 | 31 | 0.0 | 0.0 | 0.00 | 0.48 | 0.00 | 94 | 1012.2 |
| 20260906084726 | 26 | 31 | 0.0 | 0.0 | 0.00 | 0.48 | 0.00 | 94 | 1012.2 |
| 20260906084223 | 26 | 31 | 0.0 | 0.0 | 0.00 | 0.48 | 0.00 | 94 | 1012.2 |
| 20260906083702 | 26 | 31 | 0.0 | 0.0 | 0.00 | 0.48 | 0.00 | 94 | 1012.2 |
| 20260906083128 | 26 | 31 | 0.0 | 0.0 | 0.00 | 0.48 | 0.00 | 94 | 1012.2 |
| 20260906082436 | 26 | 31 | 0.0 | 0.0 | 0.00 | 0.48 | 0.00 | 93 | 1012.2 |
| 20260906081933 | 26 | 31 | 0.0 | 0.0 | 0.00 | 0.48 | 0.00 | 94 | 1012.2 |
| 20260906081430 | 26 | 31 | 0.0 | 0.0 | 0.00 | 0.48 | 0.00 | 93 | 1012.2 |
| 20260906080856 | 26 | 31 | 0.0 | 0.0 | 0.00 | 0.48 | 0.00 | 94 | 1012.2 |
| 20260906080322 | 26 | 31 | 0.0 | 0.0 | 0.00 | 0.48 | 0.00 | 94 | 1012.5 |
| 20260906075819 | 26 | 31 | 0.0 | 0.0 | 0.00 | 0.48 | 0.00 | 94 | 1012.5 |
| 20260906075316 | 26 | 31 | 0.0 | 0.0 | 0.00 | 0.48 | 0.00 | 94 | 1012.2 |
| 20260906074812 | 26 | 31 | 0.0 | 0.0 | 0.00 | 0.48 | 0.00 | 94 | 1012.2 |
| 20260906074309 | 26 | 31 | 0.0 | 0.0 | 0.00 | 0.48 | 0.00 | 94 | 1012.2 |
| 20260906073807 | 26 | 31 | 0.0 | 0.0 | 0.00 | 0.48 | 0.00 | 94 | 1012.2 |
| 20260906073304 | 26 | 31 | 0.0 | 0.0 | 0.00 | 0.48 | 0.00 | 93 | 1012.2 |
| 20260906072730 | 26 | 31 | 0.0 | 0.0 | 0.00 | 0.48 | 0.00 | 93 | 1012.5 |
| 20260906072227 | 26 | 31 | 0.0 | 0.0 | 0.00 | 0.48 | 0.00 | 94 | 1012.2 |
| 20260906071724 | 26 | 31 | 0.0 | 0.0 | 0.00 | 0.48 | 0.00 | 94 | 1012.2 |
| 20260906071221 | 26 | 31 | 0.0 | 0.0 | 0.00 | 0.48 | 0.00 | 94 | 1012.5 |
| 20260906070700 | 26 | 31 | 0.0 | 0.0 | 0.00 | 0.48 | 0.00 | 94 | 1012.5 |
| 20260906070138 | 26 | 31 | 0.0 | 0.0 | 0.00 | 0.48 | 0.00 | 93 | 1012.5 |
| 20260906065532 | 26 | 31 | 0.0 | 0.0 | 0.00 | 0.48 | 0.00 | 93 | 1012.5 |
| 20260906065030 | 26 | 31 | 0.0 | 0.0 | 0.00 | 0.48 | 0.00 | 93 | 1012.5 |
| 20260906064455 | 26 | 31 | 0.0 | 0.0 | 0.00 | 0.48 | 0.00 | 93 | 1012.5 |
| 20260906063952 | 26 | 31 | 0.0 | 0.0 | 0.00 | 0.48 | 0.00 | 93 | 1012.5 |
| 20260906063448 | 26 | 31 | 0.0 | 0.0 | 0.00 | 0.48 | 0.00 | 93 | 1012.5 |
| 20260906062914 | 26 | 31 | 0.0 | 0.0 | 0.00 | 0.48 | 0.00 | 93 | 1012.5 |
| 20260906062411 | 26 | 31 | 0.0 | 0.0 | 0.00 | 0.48 | 0.00 | 93 | 1012.5 |
| 20260906061909 | 26 | 31 | 0.0 | 0.0 | 0.00 | 0.48 | 0.00 | 93 | 1012.5 |
| 20260906061406 | 26 | 31 | 0.0 | 0.0 | 0.00 | 0.48 | 0.00 | 93 | 1012.5 |
| 20260906060814 | 26 | 31 | 0.0 | 0.0 | 0.00 | 0.48 | 0.00 | 93 | 1012.5 |
| 20260906060240 | 26 | 31 | 0.0 | 0.0 | 0.00 | 0.48 | 0.00 | 93 | 1012.5 |
| 20260906055719 | 26 | 31 | 0.0 | 0.0 | 0.00 | 0.48 | 0.00 | 93 | 1012.5 |
| 20260906055215 | 26 | 31 | 0.0 | 0.0 | 0.00 | 0.48 | 0.00 | 93 | 1012.5 |
| 20260906054711 | 26 | 31 | 0.0 | 0.0 | 0.00 | 0.48 | 0.00 | 93 | 1012.5 |
| 20260906054207 | 26 | 31 | 0.0 | 0.0 | 0.00 | 0.48 | 0.00 | 93 | 1012.5 |
| 20260906053704 | 26 | 31 | 0.0 | 0.0 | 0.00 | 0.48 | 0.00 | 93 | 1012.5 |
| 20260906053202 | 26 | 31 | 0.0 | 0.0 | 0.00 | 0.48 | 0.00 | 93 | 1012.5 |
| 20260906052659 | 26 | 31 | 0.0 | 0.0 | 0.00 | 0.48 | 0.00 | 93 | 1012.5 |
| 20260906052124 | 26 | 31 | 0.0 | 0.0 | 0.00 | 0.48 | 0.48 | 93 | 1012.5 |
| 20260906051518 | 26 | 31 | 0.0 | 0.0 | 0.00 | 0.48 | 0.48 | 93 | 1012.5 |
| 20260906050842 | 26 | 31 | 0.0 | 0.0 | 0.00 | 0.48 | 0.48 | 93 | 1012.5 |
| 20260906050321 | 26 | 31 | 0.0 | 0.0 | 0.00 | 0.48 | 0.48 | 93 | 1012.5 |
| 20260906045818 | 26 | 31 | 0.0 | 0.0 | 0.00 | 0.48 | 0.48 | 93 | 1012.5 |
| 20260906045315 | 26 | 31 | 0.0 | 0.0 | 0.00 | 0.48 | 0.48 | 93 | 1012.5 |
| 20260906044710 | 26 | 31 | 0.0 | 0.0 | 0.00 | 0.48 | 0.48 | 93 | 1012.5 |
| 20260906044207 | 26 | 31 | 0.0 | 0.0 | 0.00 | 0.48 | 0.48 | 93 | 1012.5 |
| 20260906043702 | 26 | 31 | 0.0 | 0.0 | 0.00 | 0.48 | 0.48 | 93 | 1012.5 |
| 20260906043200 | 26 | 31 | 0.0 | 0.0 | 0.00 | 0.48 | 0.48 | 93 | 1012.5 |
| 20260906042657 | 26 | 31 | 0.0 | 0.0 | 0.00 | 0.48 | 0.48 | 93 | 1012.5 |
| 20260906042154 | 26 | 31 | 0.0 | 0.0 | 0.00 | 0.48 | 0.48 | 93 | 1012.5 |
| 20260906041651 | 26 | 31 | 0.0 | 0.0 | 0.00 | 0.48 | 0.48 | 93 | 1012.5 |
| 20260906041130 | 27 | 31 | 0.0 | 0.0 | 0.00 | 0.48 | 0.48 | 93 | 1012.5 |
| 20260906040626 | 27 | 31 | 0.0 | 0.0 | 0.00 | 0.48 | 0.48 | 93 | 1012.5 |
| 20260906040021 | 27 | 31 | 0.0 | 0.0 | 0.00 | 0.48 | 0.48 | 93 | 1012.9 |
| 20260906035503 | 27 | 31 | 0.0 | 0.0 | 0.00 | 0.48 | 0.48 | 93 | 1012.9 |
| 20260906035000 | 27 | 31 | 0.0 | 0.0 | 0.00 | 0.48 | 0.48 | 92 | 1012.9 |
| 20260906034457 | 27 | 31 | 0.0 | 0.0 | 0.00 | 0.48 | 0.48 | 92 | 1012.9 |
| 20260906033954 | 27 | 31 | 0.0 | 0.0 | 0.00 | 0.48 | 0.48 | 92 | 1012.9 |
| 20260906033451 | 27 | 31 | 0.0 | 0.0 | 0.00 | 0.48 | 0.48 | 92 | 1012.9 |
| 20260906032948 | 27 | 31 | 0.0 | 0.0 | 0.00 | 0.48 | 0.48 | 92 | 1012.9 |
| 20260906032414 | 27 | 31 | 0.0 | 0.0 | 0.00 | 0.48 | 0.48 | 92 | 1012.9 |
| 20260906031911 | 27 | 31 | 0.0 | 0.0 | 0.00 | 0.48 | 0.48 | 92 | 1012.9 |
| 20260906031408 | 27 | 31 | 0.0 | 0.0 | 0.00 | 0.48 | 0.48 | 92 | 1012.9 |
| 20260906030906 | 27 | 31 | 0.0 | 0.0 | 0.00 | 0.48 | 0.48 | 92 | 1012.9 |
| 20260906030332 | 27 | 31 | 0.0 | 0.0 | 0.00 | 0.48 | 0.48 | 91 | 1012.9 |
| 20260906025324 | 27 | 31 | 0.0 | 0.0 | 0.00 | 0.48 | 0.48 | 91 | 1012.5 |
| 20260906024718 | 27 | 31 | 0.0 | 0.0 | 0.00 | 0.48 | 0.48 | 91 | 1012.5 |
| 20260906024216 | 27 | 31 | 0.0 | 0.0 | 0.00 | 0.48 | 0.48 | 91 | 1012.5 |
| 20260906023626 | 27 | 31 | 0.0 | 0.0 | 0.00 | 0.48 | 0.48 | 91 | 1012.5 |
| 20260906023104 | 27 | 31 | 0.0 | 0.0 | 0.00 | 0.48 | 0.48 | 91 | 1012.5 |
| 20260906022529 | 27 | 31 | 0.0 | 0.0 | 0.00 | 0.48 | 0.48 | 91 | 1012.2 |
| 20260906022026 | 27 | 31 | 0.0 | 0.0 | 0.00 | 0.48 | 0.48 | 91 | 1012.2 |
| 20260906021507 | 27 | 31 | 0.0 | 0.0 | 0.00 | 0.48 | 0.48 | 90 | 1012.2 |
| 20260906021004 | 27 | 31 | 0.0 | 0.0 | 0.00 | 0.48 | 0.48 | 90 | 1011.9 |
| 20260906020501 | 27 | 31 | 0.0 | 0.0 | 0.00 | 0.48 | 0.48 | 90 | 1011.9 |
| 20260906015927 | 27 | 31 | 0.0 | 1.6 | 0.00 | 0.48 | 0.48 | 90 | 1011.9 |
| 20260906015424 | 27 | 31 | 0.0 | 1.6 | 0.00 | 0.48 | 0.48 | 90 | 1011.9 |
| 20260906014826 | 27 | 31 | 0.0 | 1.6 | 0.00 | 0.48 | 0.48 | 90 | 1011.9 |
| 20260906014322 | 27 | 31 | 0.0 | 1.6 | 0.00 | 0.48 | 0.48 | 90 | 1011.9 |
| 20260906013820 | 27 | 31 | 0.0 | 0.0 | 0.00 | 0.48 | 0.48 | 90 | 1011.9 |
| 20260906013317 | 27 | 31 | 0.0 | 0.0 | 0.00 | 0.48 | 0.48 | 89 | 1011.5 |
| 20260906012814 | 27 | 31 | 0.0 | 0.0 | 0.00 | 0.48 | 0.48 | 89 | 1011.9 |
| 20260906012311 | 27 | 31 | 0.0 | 0.0 | 0.00 | 0.48 | 0.48 | 89 | 1011.5 |
| 20260906011808 | 28 | 31 | 0.0 | 0.0 | 0.00 | 0.48 | 0.48 | 89 | 1011.5 |
| 20260906011305 | 28 | 31 | 0.0 | 0.0 | 0.00 | 0.48 | 0.48 | 89 | 1011.5 |
| 20260906010801 | 28 | 31 | 0.0 | 0.0 | 0.00 | 0.48 | 0.48 | 89 | 1011.5 |
| 20260906010227 | 28 | 31 | 0.0 | 1.6 | 0.00 | 0.48 | 0.48 | 89 | 1011.5 |
| 20260906005647 | 28 | 31 | 0.0 | 1.6 | 0.00 | 0.48 | 0.48 | 88 | 1011.5 |
| 20260906005144 | 28 | 31 | 0.0 | 1.6 | 0.00 | 0.48 | 0.48 | 88 | 1011.9 |
| 20260906004641 | 28 | 30 | 0.0 | 1.6 | 0.00 | 0.48 | 0.48 | 88 | 1011.9 |
| 20260906004138 | 28 | 30 | 0.0 | 1.6 | 0.00 | 0.48 | 0.48 | 88 | 1011.9 |
| 20260906003636 | 28 | 30 | 0.0 | 1.6 | 0.00 | 0.48 | 0.48 | 88 | 1011.9 |
| 20260906003114 | 28 | 30 | 0.0 | 1.6 | 0.00 | 0.48 | 0.48 | 87 | 1011.9 |
| 20260906002611 | 28 | 30 | 0.0 | 4.8 | 0.00 | 0.48 | 0.48 | 87 | 1011.9 |
| 20260906002108 | 28 | 30 | 0.0 | 4.8 | 0.00 | 0.48 | 0.48 | 87 | 1011.9 |
| 20260906001605 | 29 | 30 | 0.0 | 4.8 | 0.00 | 0.48 | 0.48 | 87 | 1011.9 |
| 20260906001102 | 29 | 57 | 1.6 | 4.8 | 0.00 | 0.48 | 0.48 | 87 | 1012.2 |
| 20260906000527 | 29 | 5 | 3.2 | 4.8 | 0.00 | 0.48 | 0.48 | 87 | 1012.2 |
| 20260906000024 | 29 | 10 | 1.6 | 4.8 | 0.00 | 0.48 | 0.48 | 87 | 1012.2 |
| 20260905235522 | 29 | 21 | 1.6 | 4.8 | 0.00 | 0.48 | 0.48 | 87 | 1012.2 |
| 20260905235019 | 29 | 26 | 1.6 | 4.8 | 0.00 | 0.48 | 0.48 | 87 | 1012.2 |
| 20260905234516 | 29 | 27 | 1.6 | 4.8 | 0.00 | 0.48 | 0.48 | 87 | 1012.2 |
| 20260905234012 | 29 | 355 | 0.0 | 4.8 | 0.00 | 0.48 | 0.48 | 87 | 1012.2 |
| 20260905233509 | 29 | 27 | 1.6 | 4.8 | 0.00 | 0.48 | 0.48 | 86 | 1012.2 |
| 20260905232950 | 30 | 23 | 1.6 | 4.8 | 0.00 | 0.48 | 0.48 | 86 | 1012.2 |
| 20260905232415 | 30 | 360 | 0.0 | 4.8 | 0.00 | 0.48 | 0.48 | 87 | 1011.9 |
| 20260905231913 | 30 | 0 | 3.2 | 6.4 | 0.00 | 0.48 | 0.48 | 87 | 1011.9 |
| 20260905231410 | 30 | 61 | 1.6 | 8.0 | 0.00 | 0.48 | 0.48 | 86 | 1011.9 |
| 20260905230835 | 30 | 32 | 1.6 | 8.0 | 0.00 | 0.48 | 0.48 | 86 | 1011.9 |
| 20260905230314 | 30 | 69 | 1.6 | 8.0 | 0.00 | 0.48 | 0.48 | 86 | 1011.9 |
| 20260905225811 | 30 | 71 | 1.6 | 8.0 | 0.00 | 0.48 | 0.48 | 85 | 1011.9 |
| 20260905225206 | 30 | 0 | 1.6 | 4.8 | 0.00 | 0.48 | 0.48 | 86 | 1011.9 |
| 20260905224703 | 30 | 65 | 1.6 | 4.8 | 0.00 | 0.48 | 0.48 | 85 | 1011.9 |
| 20260905224200 | 30 | 39 | 1.6 | 4.8 | 0.00 | 0.48 | 0.48 | 85 | 1012.2 |
| 20260905223657 | 30 | 76 | 1.6 | 4.8 | 0.00 | 0.48 | 0.48 | 85 | 1011.9 |
| 20260905223153 | 30 | 323 | 1.6 | 4.8 | 0.00 | 0.48 | 0.48 | 86 | 1011.9 |
| 20260905222650 | 30 | 49 | 0.0 | 4.8 | 0.00 | 0.48 | 0.48 | 86 | 1011.9 |
| 20260905222147 | 30 | 85 | 1.6 | 4.8 | 0.00 | 0.48 | 0.48 | 85 | 1011.9 |
| 20260905221644 | 30 | 22 | 1.6 | 4.8 | 0.00 | 0.48 | 0.48 | 85 | 1011.9 |
| 20260905221140 | 30 | 34 | 1.6 | 6.4 | 0.00 | 0.48 | 0.48 | 84 | 1011.9 |
| 20260905220637 | 31 | 58 | 1.6 | 8.0 | 0.00 | 0.48 | 0.48 | 83 | 1011.9 |
| 20260905220135 | 31 | 42 | 0.0 | 8.0 | 0.00 | 0.48 | 0.48 | 84 | 1011.9 |
| 20260905215631 | 31 | 9 | 3.2 | 8.0 | 0.00 | 0.48 | 0.48 | 82 | 1011.9 |
| 20260905215128 | 31 | 47 | 1.6 | 8.0 | 0.00 | 0.48 | 0.48 | 83 | 1011.9 |
| 20260905214555 | 31 | 56 | 3.2 | 8.0 | 0.00 | 0.48 | 0.48 | 80 | 1011.9 |
| 20260905214052 | 31 | 69 | 3.2 | 8.0 | 0.00 | 0.48 | 0.48 | 80 | 1011.9 |
| 20260905213549 | 31 | 68 | 3.2 | 8.0 | 0.00 | 0.48 | 0.48 | 79 | 1011.9 |
| 20260905213046 | 31 | 52 | 3.2 | 4.8 | 0.00 | 0.48 | 0.48 | 78 | 1011.9 |
| 20260905212512 | 32 | 280 | 1.6 | 1.6 | 0.00 | 0.48 | 0.48 | 79 | 1011.9 |
| 20260905212010 | 32 | 280 | 1.6 | 1.6 | 0.00 | 0.48 | 0.48 | 81 | 1012.2 |
| 20260905211507 | 32 | 280 | 1.6 | 3.2 | 0.00 | 0.48 | 0.48 | 78 | 1011.9 |
| 20260905211004 | 32 | 280 | 0.0 | 3.2 | 0.00 | 0.48 | 0.48 | 78 | 1011.9 |
| 20260905210501 | 32 | 280 | 1.6 | 3.2 | 0.00 | 0.48 | 0.48 | 78 | 1011.9 |
| 20260905205959 | 32 | 280 | 0.0 | 3.2 | 0.00 | 0.48 | 0.48 | 78 | 1012.2 |